| time (UTC) | temp C | wind direction | speed KPH | gust KPH | rain 1hr cm | rain 24hr cm | rain mn cm | humidity % | barometer mb |
| 20260506160016 | 13 | 19 | 3.2 | 16.1 | 0.00 | 0.00 | 0.00 | 88 | 1014.1 |
| 20260506154514 | 13 | 347 | 8.0 | 17.7 | 0.00 | 0.00 | 0.00 | 87 | 1013.7 |
| 20260506153009 | 13 | 12 | 3.2 | 14.5 | 0.00 | 0.00 | 0.00 | 87 | 1013.2 |
| 20260506151509 | 13 | 11 | 3.2 | 16.1 | 0.00 | 0.00 | 0.00 | 87 | 1012.7 |
| 20260506150008 | 13 | 13 | 3.2 | 17.7 | 0.00 | 0.00 | 0.00 | 87 | 1013.2 |
| 20260506144508 | 12 | 9 | 4.8 | 17.7 | 0.00 | 0.00 | 0.00 | 87 | 1012.7 |
| 20260506143007 | 12 | 13 | 9.7 | 19.3 | 0.00 | 0.00 | 0.00 | 87 | 1012.3 |
| 20260506141501 | 12 | 19 | 4.8 | 20.9 | 0.00 | 0.00 | 0.00 | 87 | 1012.2 |
| 20260506140104 | 12 | 355 | 8.0 | 19.3 | 0.00 | 0.00 | 0.00 | 86 | 1012.1 |
| 20260506134558 | 12 | 26 | 6.4 | 17.7 | 0.00 | 0.00 | 0.00 | 86 | 1011.8 |
| 20260506133101 | 12 | 340 | 8.0 | 19.3 | 0.00 | 0.00 | 0.00 | 86 | 1012.0 |
| 20260506131552 | 12 | 355 | 8.0 | 19.3 | 0.00 | 0.00 | 0.00 | 86 | 1011.8 |
| 20260506130053 | 12 | 15 | 8.0 | 17.7 | 0.00 | 0.00 | 0.00 | 86 | 1011.7 |
| 20260506124545 | 13 | 47 | 9.7 | 19.3 | 0.00 | 0.00 | 0.00 | 85 | 1011.5 |
| 20260506123043 | 13 | 11 | 11.3 | 20.9 | 0.00 | 0.00 | 0.00 | 84 | 1011.4 |
| 20260506121539 | 13 | 59 | 4.8 | 14.5 | 0.00 | 0.00 | 0.00 | 84 | 1010.8 |
| 20260506120037 | 13 | 5 | 4.8 | 17.7 | 0.00 | 0.00 | 0.00 | 83 | 1010.6 |
| 20260506114534 | 13 | 344 | 11.3 | 19.3 | 0.00 | 0.00 | 0.00 | 83 | 1010.3 |
| 20260506113031 | 13 | 360 | 6.4 | 19.3 | 0.00 | 0.00 | 0.00 | 82 | 1009.9 |
| 20260506111528 | 14 | 5 | 3.2 | 20.9 | 0.00 | 0.00 | 0.00 | 82 | 1009.6 |
| 20260506110025 | 14 | 355 | 3.2 | 14.5 | 0.00 | 0.00 | 0.00 | 82 | 1009.3 |
| 20260506104522 | 14 | 320 | 6.4 | 17.7 | 0.00 | 0.00 | 0.00 | 82 | 1009.1 |
| 20260506103022 | 14 | 27 | 6.4 | 17.7 | 0.00 | 0.00 | 0.00 | 82 | 1009.1 |
| 20260506101519 | 15 | 26 | 4.8 | 14.5 | 0.00 | 0.00 | 0.00 | 82 | 1008.6 |
| 20260506100015 | 15 | 346 | 4.8 | 12.9 | 0.00 | 0.00 | 0.00 | 82 | 1008.8 |
| 20260506094514 | 15 | 15 | 4.8 | 12.9 | 0.00 | 0.00 | 0.00 | 82 | 1008.7 |
| 20260506093013 | 15 | 45 | 1.6 | 6.4 | 0.00 | 0.00 | 0.00 | 82 | 1008.4 |
| 20260506091609 | 15 | 16 | 4.8 | 16.1 | 0.00 | 0.00 | 0.00 | 81 | 1008.3 |
| 20260506090006 | 15 | 5 | 4.8 | 14.5 | 0.00 | 0.00 | 0.00 | 81 | 1008.4 |
| 20260506084511 | 16 | 24 | 3.2 | 14.5 | 0.00 | 0.00 | 0.00 | 81 | 1008.3 |
| 20260506083001 | 16 | 355 | 8.0 | 16.1 | 0.00 | 0.00 | 0.00 | 81 | 1008.4 |
| 20260506081600 | 16 | 14 | 8.0 | 17.7 | 0.00 | 0.00 | 0.00 | 81 | 1008.1 |
| 20260506080112 | 16 | 335 | 1.6 | 16.1 | 0.00 | 0.00 | 0.00 | 81 | 1008.2 |
| 20260506073105 | 16 | 18 | 9.7 | 20.9 | 0.00 | 0.00 | 0.00 | 80 | 1008.0 |
| 20260506071551 | 17 | 341 | 4.8 | 19.3 | 0.00 | 0.00 | 0.00 | 80 | 1008.0 |
| 20260506061554 | 18 | 327 | 4.8 | 19.3 | 0.00 | 0.00 | 0.00 | 80 | 1007.7 |
| 20260506044517 | 24 | 18 | 3.2 | 14.5 | 0.00 | 0.00 | 0.00 | 83 | 1006.9 |
| 20260506043014 | 24 | 279 | 0.0 | 4.8 | 0.00 | 0.00 | 0.00 | 83 | 1006.6 |
| 20260506041514 | 24 | 278 | 1.6 | 6.4 | 0.00 | 0.00 | 0.00 | 83 | 1006.5 |
| 20260506040017 | 24 | 280 | 3.2 | 8.0 | 0.00 | 0.00 | 0.00 | 83 | 1006.6 |
| 20260506034513 | 24 | 278 | 3.2 | 6.4 | 0.00 | 0.00 | 0.00 | 83 | 1006.3 |
| 20260506033012 | 24 | 211 | 4.8 | 11.3 | 0.00 | 0.00 | 0.00 | 83 | 1005.8 |
| 20260506031512 | 24 | 184 | 4.8 | 11.3 | 0.00 | 0.00 | 0.00 | 83 | 1005.4 |
| 20260506030011 | 24 | 184 | 9.7 | 16.1 | 0.00 | 0.00 | 0.00 | 82 | 1004.9 |
| 20260506024511 | 25 | 191 | 4.8 | 9.7 | 0.00 | 0.00 | 0.00 | 81 | 1005.0 |
| 20260506023009 | 25 | 212 | 6.4 | 9.7 | 0.00 | 0.00 | 0.00 | 81 | 1005.1 |
| 20260506021509 | 25 | 209 | 1.6 | 12.9 | 0.00 | 0.00 | 0.00 | 80 | 1004.9 |
| 20260506020011 | 25 | 190 | 11.3 | 16.1 | 0.00 | 0.00 | 0.00 | 81 | 1004.5 |
| 20260506014509 | 25 | 171 | 9.7 | 14.5 | 0.00 | 0.00 | 0.00 | 79 | 1004.2 |
| 20260506013008 | 25 | 192 | 4.8 | 11.3 | 0.00 | 0.00 | 0.00 | 77 | 1004.8 |
| 20260506011507 | 26 | 211 | 6.4 | 14.5 | 0.00 | 0.00 | 0.00 | 77 | 1004.6 |
| 20260506010006 | 26 | 206 | 9.7 | 14.5 | 0.00 | 0.00 | 0.00 | 76 | 1004.3 |
| 20260506004518 | 26 | 208 | 9.7 | 14.5 | 0.00 | 0.00 | 0.00 | 75 | 1004.3 |
| 20260506003006 | 26 | 200 | 9.7 | 14.5 | 0.00 | 0.00 | 0.00 | 74 | 1004.2 |
| 20260506001505 | 27 | 202 | 11.3 | 14.5 | 0.00 | 0.00 | 0.00 | 73 | 1003.9 |
| 20260506000004 | 27 | 213 | 6.4 | 12.9 | 0.00 | 0.00 | 0.00 | 71 | 1004.0 |
| 20260505234504 | 28 | 246 | 8.0 | 17.7 | 0.00 | 0.00 | 0.00 | 70 | 1004.2 |
| 20260505233003 | 28 | 193 | 9.7 | 20.9 | 0.00 | 0.00 | 0.00 | 71 | 1004.0 |
| 20260505231502 | 27 | 244 | 11.3 | 20.9 | 0.00 | 0.00 | 0.00 | 71 | 1004.0 |
| 20260505230005 | 28 | 206 | 11.3 | 19.3 | 0.00 | 0.00 | 0.00 | 71 | 1004.0 |
| 20260505224501 | 28 | 222 | 17.7 | 27.4 | 0.00 | 0.00 | 0.00 | 71 | 1003.8 |
| 20260505223105 | 28 | 198 | 20.9 | 30.6 | 0.00 | 0.00 | 0.00 | 71 | 1003.8 |
| 20260505221602 | 28 | 190 | 12.9 | 32.2 | 0.00 | 0.00 | 0.00 | 70 | 1003.8 |
| 20260505220108 | 28 | 238 | 19.3 | 32.2 | 0.00 | 0.00 | 0.00 | 69 | 1003.7 |
| 20260505214612 | 28 | 198 | 22.5 | 37.0 | 0.00 | 0.00 | 0.00 | 70 | 1003.5 |
| 20260505213056 | 28 | 230 | 17.7 | 35.4 | 0.00 | 0.00 | 0.00 | 69 | 1003.8 |
| 20260505211631 | 28 | 243 | 17.7 | 35.4 | 0.00 | 0.00 | 0.00 | 70 | 1003.8 |
| 20260505210054 | 28 | 251 | 17.7 | 35.4 | 0.00 | 0.00 | 0.00 | 69 | 1003.9 |
| 20260505204602 | 28 | 227 | 19.3 | 45.1 | 0.00 | 0.00 | 0.00 | 69 | 1004.1 |
| 20260505203049 | 28 | 192 | 20.9 | 35.4 | 0.00 | 0.00 | 0.00 | 71 | 1004.1 |
| 20260505201546 | 28 | 207 | 17.7 | 37.0 | 0.00 | 0.00 | 0.00 | 71 | 1004.3 |
| 20260505200044 | 28 | 200 | 25.7 | 43.5 | 0.00 | 0.00 | 0.00 | 72 | 1004.3 |
| 20260505194542 | 27 | 228 | 27.4 | 46.7 | 0.00 | 0.00 | 0.00 | 72 | 1004.4 |
| 20260505193041 | 27 | 198 | 27.4 | 35.4 | 0.00 | 0.00 | 0.00 | 73 | 1004.6 |
| 20260505191540 | 27 | 187 | 22.5 | 38.6 | 0.00 | 0.00 | 0.00 | 74 | 1004.7 |
| 20260505190039 | 27 | 219 | 24.1 | 43.5 | 0.00 | 0.00 | 0.00 | 73 | 1004.7 |
| 20260505184542 | 27 | 227 | 25.7 | 38.6 | 0.00 | 0.00 | 0.00 | 72 | 1004.6 |
| 20260505183036 | 27 | 245 | 20.9 | 43.5 | 0.00 | 0.00 | 0.00 | 73 | 1004.8 |
| 20260505181539 | 27 | 232 | 24.1 | 37.0 | 0.00 | 0.00 | 0.00 | 74 | 1005.1 |
| 20260505180028 | 26 | 265 | 29.0 | 48.3 | 0.00 | 0.00 | 0.00 | 75 | 1005.3 |
| 20260505174535 | 26 | 215 | 17.7 | 40.2 | 0.00 | 0.00 | 0.00 | 77 | 1005.5 |
| 20260505173023 | 25 | 214 | 17.7 | 37.0 | 0.00 | 0.00 | 0.00 | 78 | 1005.4 |
| 20260505171530 | 25 | 233 | 25.7 | 37.0 | 0.00 | 0.00 | 0.00 | 77 | 1005.6 |
| 20260505170019 | 25 | 197 | 25.7 | 48.3 | 0.00 | 0.00 | 0.00 | 78 | 1005.3 |
| 20260505164517 | 25 | 217 | 24.1 | 48.3 | 0.00 | 0.00 | 0.00 | 79 | 1005.3 |
| 20260505163014 | 24 | 244 | 19.3 | 57.9 | 0.00 | 0.00 | 0.00 | 80 | 1005.2 |
| 20260505161512 | 23 | 221 | 25.7 | 46.7 | 0.00 | 0.00 | 0.00 | 81 | 1005.2 |